TimeCST,TemperatureF,Dew PointF,Humidity,Sea Level PressureIn,VisibilityMPH,Wind Direction,Wind SpeedMPH,Gust SpeedMPH,PrecipitationIn,Events,Conditions,WindDirDegrees,DateUTC
12:51 AM,39.0,34.0,82,30.23,10.0,Calm,Calm,-,N/A,,Clear,0,2012-11-04 05:51:00
1:51 AM,37.0,33.1,86,30.22,10.0,Calm,Calm,-,N/A,,Clear,0,2012-11-04 06:51:00
1:51 AM,36.0,32.0,86,30.24,10.0,NNW,3.5,-,N/A,,Clear,340,2012-11-04 07:51:00
2:51 AM,34.0,30.0,85,30.24,10.0,Calm,Calm,-,N/A,,Clear,0,2012-11-04 08:51:00
3:51 AM,34.0,30.9,89,30.24,10.0,WNW,3.5,-,N/A,,Clear,290,2012-11-04 09:51:00
4:51 AM,34.0,30.0,85,30.25,10.0,Calm,Calm,-,N/A,,Clear,0,2012-11-04 10:51:00
5:51 AM,33.1,28.9,85,30.24,10.0,Calm,Calm,-,N/A,,Partly Cloudy,0,2012-11-04 11:51:00
6:51 AM,32.0,28.4,87,30.25,7.0,WNW,3.5,-,N/A,,Scattered Clouds,290,2012-11-04 12:51:00
7:51 AM,37.9,33.1,83,30.28,7.0,Calm,Calm,-,N/A,,Scattered Clouds,0,2012-11-04 13:51:00
8:51 AM,41.0,35.1,79,30.29,9.0,NNW,5.8,-,N/A,,Scattered Clouds,330,2012-11-04 14:51:00
9:51 AM,44.6,33.8,66,30.26,10.0,East,6.9,-,N/A,,Mostly Cloudy,90,2012-11-04 15:51:00
10:51 AM,46.9,30.9,54,30.27,10.0,Variable,4.6,-,N/A,,Mostly Cloudy,0,2012-11-04 16:51:00
11:51 AM,48.9,32.0,52,30.25,10.0,East,5.8,-,N/A,,Mostly Cloudy,90,2012-11-04 17:51:00
12:51 PM,50.0,32.0,50,30.24,10.0,Variable,4.6,-,N/A,,Mostly Cloudy,0,2012-11-04 18:51:00
1:51 PM,50.0,30.9,48,30.22,10.0,Variable,3.5,-,N/A,,Mostly Cloudy,0,2012-11-04 19:51:00
2:51 PM,50.0,30.9,48,30.21,10.0,East,3.5,-,N/A,,Overcast,80,2012-11-04 20:51:00
3:51 PM,50.0,32.0,50,30.20,10.0,ENE,4.6,-,N/A,,Mostly Cloudy,70,2012-11-04 21:51:00
4:51 PM,46.9,32.0,56,30.19,10.0,East,4.6,-,N/A,,Mostly Cloudy,80,2012-11-04 22:51:00
5:51 PM,46.9,33.1,59,30.20,10.0,East,3.5,-,N/A,,Mostly Cloudy,90,2012-11-04 23:51:00
6:51 PM,46.0,33.1,61,30.19,10.0,East,9.2,-,N/A,,Mostly Cloudy,100,2012-11-05 00:51:00
7:51 PM,44.1,34.0,68,30.19,10.0,East,5.8,-,N/A,,Mostly Cloudy,90,2012-11-05 01:51:00
8:51 PM,44.1,34.0,68,30.20,10.0,East,5.8,-,N/A,,Mostly Cloudy,80,2012-11-05 02:51:00
9:51 PM,45.0,34.0,65,30.20,10.0,East,3.5,-,N/A,,Overcast,90,2012-11-05 03:51:00
10:51 PM,44.1,34.0,68,30.18,10.0,East,6.9,-,N/A,,Overcast,80,2012-11-05 04:51:00